Time,TemperatureF,DewpointF,PressureIn,WindDirection,WindDirectionDegrees,WindSpeedMPH,WindSpeedGustMPH,Humidity,HourlyPrecipIn,Conditions,Clouds,dailyrainin,SoftwareType,DateUTC
2013-06-22 11:02:00,86.0,73.0,30.08,ESE,110,6.0,7.0,65,0.00,,,0.00,,2013-06-22 15:02:00,
2013-06-22 11:12:00,86.0,73.0,30.08,SSE,156,4.0,6.0,65,0.00,,,0.00,,2013-06-22 15:12:00,
2013-06-22 11:34:00,86.0,73.0,30.08,East,89,4.0,5.0,66,0.00,,,0.00,,2013-06-22 15:34:00,
2013-06-22 11:43:00,86.0,72.0,30.08,ESE,110,4.0,5.0,64,0.00,,,0.00,,2013-06-22 15:43:00,
2013-06-22 11:53:00,87.0,72.0,30.08,ESE,108,8.0,8.0,61,0.00,,,0.00,,2013-06-22 15:53:00,
2013-06-22 12:02:00,87.0,73.0,30.08,SE,143,6.0,6.0,63,0.00,,,0.00,,2013-06-22 16:02:00,
2013-06-22 12:12:00,86.0,73.0,30.08,ESE,115,5.0,8.0,65,0.00,,,0.00,,2013-06-22 16:12:00,
2013-06-22 12:22:00,86.0,72.0,30.08,ESE,114,7.0,7.0,63,0.00,,,0.00,,2013-06-22 16:22:00,
2013-06-22 12:34:00,86.0,72.0,30.08,ESE,114,7.0,7.0,63,0.00,,,0.00,,2013-06-22 16:34:00,
2013-06-22 12:43:00,87.0,72.0,30.08,East,94,4.0,5.0,62,0.00,,,0.00,,2013-06-22 16:43:00,
2013-06-22 12:52:00,87.0,72.0,30.09,SSE,149,7.0,9.0,62,0.00,,,0.00,,2013-06-22 16:52:00,
2013-06-22 13:02:00,87.0,73.0,30.09,East,94,5.0,6.0,63,0.00,,,0.00,,2013-06-22 17:02:00,
2013-06-22 13:11:00,87.0,72.0,30.08,SE,127,5.0,7.0,61,0.00,,,0.00,,2013-06-22 17:11:00,
2013-06-22 13:22:00,87.0,74.0,30.09,NE,53,3.0,4.0,65,0.00,,,0.00,,2013-06-22 17:22:00,
2013-06-22 13:34:00,88.0,72.0,30.09,ESE,104,3.0,3.0,59,0.00,,,0.00,,2013-06-22 17:34:00,
2013-06-22 13:43:00,88.0,73.0,30.08,ENE,65,5.0,6.0,61,0.00,,,0.00,,2013-06-22 17:43:00,
2013-06-22 13:52:00,88.0,72.0,30.08,NE,56,6.0,6.0,60,0.00,,,0.00,,2013-06-22 17:52:00,
2013-06-22 14:02:00,87.0,70.0,30.08,ENE,66,5.0,5.0,58,0.00,,,0.00,,2013-06-22 18:02:00,
2013-06-22 14:12:00,87.0,73.0,30.07,NNE,21,6.0,8.0,63,0.00,,,0.00,,2013-06-22 18:12:00,
2013-06-22 14:34:00,86.0,71.0,30.07,South,172,7.0,7.0,62,0.00,,,0.00,,2013-06-22 18:34:00,
2013-06-22 14:43:00,87.0,72.0,30.07,SE,132,4.0,6.0,62,0.00,,,0.00,,2013-06-22 18:43:00,
2013-06-22 14:52:00,87.0,71.0,30.07,NE,56,6.0,6.0,60,0.00,,,0.00,,2013-06-22 18:52:00,
2013-06-22 15:01:00,87.0,72.0,30.06,East,82,5.0,8.0,62,0.00,,,0.00,,2013-06-22 19:01:00,
2013-06-22 15:11:00,87.0,72.0,30.06,NE,39,4.0,4.0,61,0.00,,,0.00,,2013-06-22 19:11:00,
2013-06-22 15:33:00,87.0,73.0,30.06,SE,134,7.0,7.0,63,0.00,,,0.00,,2013-06-22 19:33:00,
2013-06-22 15:43:00,87.0,73.0,30.05,ESE,108,7.0,9.0,63,0.00,,,0.00,,2013-06-22 19:43:00,
2013-06-22 16:02:00,87.0,72.0,30.06,SSE,158,7.0,8.0,61,0.00,,,0.00,,2013-06-22 20:02:00,
2013-06-22 16:11:00,87.0,73.0,30.05,East,89,5.0,9.0,63,0.00,,,0.00,,2013-06-22 20:11:00,
2013-06-22 16:22:00,87.0,72.0,30.05,NE,48,5.0,5.0,61,0.00,,,0.00,,2013-06-22 20:22:00,
2013-06-22 16:33:00,87.0,71.0,30.05,SE,135,8.0,8.0,59,0.00,,,0.00,,2013-06-22 20:33:00,
2013-06-22 16:43:00,87.0,71.0,30.05,NNE,14,4.0,5.0,60,0.00,,,0.00,,2013-06-22 20:43:00,
2013-06-22 16:53:00,87.0,71.0,30.05,SSE,150,7.0,7.0,60,0.00,,,0.00,,2013-06-22 20:53:00,
2013-06-22 17:01:00,87.0,71.0,30.05,NNE,32,6.0,8.0,60,0.00,,,0.00,,2013-06-22 21:01:00,
2013-06-22 17:11:00,87.0,72.0,30.04,ENE,77,2.0,6.0,62,0.00,,,0.00,,2013-06-22 21:11:00,
2013-06-22 17:22:00,86.0,72.0,30.04,ESE,110,5.0,6.0,64,0.00,,,0.00,,2013-06-22 21:22:00,
2013-06-22 17:34:00,86.0,73.0,30.04,SE,138,6.0,6.0,65,0.00,,,0.00,,2013-06-22 21:34:00,
2013-06-22 17:43:00,86.0,72.0,30.04,ENE,76,5.0,7.0,64,0.00,,,0.00,,2013-06-22 21:43:00,
2013-06-22 17:53:00,86.0,72.0,30.04,NE,49,7.0,7.0,63,0.00,,,0.00,,2013-06-22 21:53:00,
2013-06-22 18:02:00,86.0,71.0,30.04,East,94,8.0,8.0,61,0.00,,,0.00,,2013-06-22 22:02:00,
2013-06-22 18:12:00,86.0,71.0,30.03,NNE,27,6.0,8.0,61,0.00,,,0.00,,2013-06-22 22:12:00,
2013-06-22 18:23:00,86.0,70.0,30.03,NNE,17,5.0,11.0,60,0.00,,,0.00,,2013-06-22 22:23:00,
2013-06-22 18:33:00,86.0,72.0,30.03,NNE,28,4.0,7.0,63,0.00,,,0.00,,2013-06-22 22:33:00,
2013-06-22 18:43:00,86.0,72.0,30.03,NE,41,5.0,5.0,64,0.00,,,0.00,,2013-06-22 22:43:00,
2013-06-22 18:52:00,85.0,71.0,30.03,East,87,6.0,6.0,64,0.00,,,0.00,,2013-06-22 22:52:00,
2013-06-22 19:01:00,86.0,71.0,30.03,NNE,27,4.0,4.0,62,0.00,,,0.00,,2013-06-22 23:01:00,
2013-06-22 19:11:00,85.0,71.0,30.03,East,90,7.0,7.0,64,0.00,,,0.00,,2013-06-22 23:11:00,
2013-06-22 19:22:00,84.0,71.0,30.03,ESE,115,4.0,6.0,66,0.00,,,0.00,,2013-06-22 23:22:00,
2013-06-22 19:34:00,85.0,72.0,30.03,ENE,58,5.0,6.0,65,0.00,,,0.00,,2013-06-22 23:34:00,
2013-06-22 19:43:00,84.0,72.0,30.03,SE,134,6.0,6.0,67,0.00,,,0.00,,2013-06-22 23:43:00,
2013-06-22 19:52:00,84.0,72.0,30.03,ESE,114,6.0,6.0,68,0.00,,,0.00,,2013-06-22 23:52:00,
2013-06-22 20:01:00,84.0,72.0,30.03,East,90,5.0,7.0,67,0.00,,,0.00,,2013-06-23 00:01:00,
2013-06-22 20:11:00,83.0,72.0,30.03,ENE,58,5.0,5.0,70,0.00,,,0.00,,2013-06-23 00:11:00,
2013-06-22 20:22:00,83.0,72.0,30.03,SE,143,3.0,8.0,70,0.00,,,0.00,,2013-06-23 00:22:00,
2013-06-22 20:33:00,83.0,73.0,30.03,East,93,4.0,4.0,72,0.00,,,0.00,,2013-06-23 00:33:00,
2013-06-22 20:42:00,83.0,73.0,30.03,East,93,4.0,4.0,72,0.00,,,0.00,,2013-06-23 00:42:00,
2013-06-22 20:53:00,83.0,74.0,30.04,ESE,104,8.0,10.0,74,0.00,,,0.00,,2013-06-23 00:53:00,
2013-06-22 21:01:00,83.0,74.0,30.04,NNE,24,4.0,5.0,74,0.00,,,0.00,,2013-06-23 01:01:00,
2013-06-22 21:11:00,83.0,74.0,30.04,East,86,4.0,6.0,74,0.00,,,0.00,,2013-06-23 01:11:00,
2013-06-22 21:20:00,82.0,73.0,30.05,East,90,5.0,5.0,75,0.00,,,0.00,,2013-06-23 01:20:00,
2013-06-22 21:22:00,83.0,74.0,30.04,East,86,4.0,6.0,74,0.00,,,0.00,,2013-06-23 01:22:00,
2013-06-22 21:32:00,82.0,73.0,30.05,East,90,5.0,5.0,75,0.00,,,0.00,,2013-06-23 01:32:00,
2013-06-22 21:42:00,82.0,73.0,30.05,East,90,5.0,5.0,75,0.00,,,0.00,,2013-06-23 01:42:00,
2013-06-22 21:52:00,82.0,73.0,30.05,East,90,5.0,5.0,75,0.00,,,0.00,,2013-06-23 01:52:00,
2013-06-22 22:01:00,82.0,73.0,30.05,East,90,5.0,5.0,75,0.00,,,0.00,,2013-06-23 02:01:00,
2013-06-22 22:11:00,82.0,73.0,30.05,East,90,5.0,5.0,75,0.00,,,0.00,,2013-06-23 02:11:00,
2013-06-22 22:41:00,82.0,73.0,30.05,SE,136,4.0,4.0,74,0.00,,,0.00,,2013-06-23 02:41:00,
2013-06-22 22:52:00,82.0,73.0,30.05,SE,136,4.0,4.0,74,0.00,,,0.00,,2013-06-23 02:52:00,
2013-06-22 23:01:00,82.0,73.0,30.06,SE,139,5.0,5.0,74,0.00,,,0.00,,2013-06-23 03:01:00,
2013-06-22 23:11:00,82.0,73.0,30.06,SW,229,3.0,3.0,74,0.00,,,0.00,,2013-06-23 03:11:00,
2013-06-22 23:21:00,82.0,73.0,30.06,SW,229,3.0,3.0,74,0.00,,,0.00,,2013-06-23 03:21:00,
2013-06-22 23:31:00,82.0,73.0,30.06,SW,229,3.0,3.0,74,0.00,,,0.00,,2013-06-23 03:31:00,
2013-06-22 23:41:00,82.0,73.0,30.06,ESE,118,3.0,3.0,75,0.00,,,0.00,,2013-06-23 03:41:00,
2013-06-22 23:51:00,83.0,73.0,30.08,ESE,122,5.0,6.0,73,0.00,,,0.00,,2013-06-23 03:51:00,